Weather History for Great Falls, MT

Change the Weather History Date:

Sunday, March 9, 2014

  Actual Average Record
Temperature  
Mean Temperature 50 °F 32 °F  
Max Temperature 61 °F 44 °F 70 °F (1972)
Min Temperature 38 °F 20 °F -28 °F (1932)
Degree Days  
Heating Degree Days 15 33  
Month to date heating degree days 389 307  
Since 1 July heating degree days 6043 5812  
Cooling Degree Days 0 0  
Month to date cooling degree days 0 0  
Year to date cooling degree days 0 0  
Growing Degree Days 1 (Base 50)    
Moisture  
Dew Point 32 °F    
Average Humidity 49    
Maximum Humidity 70    
Minimum Humidity 28    
Precipitation  
Precipitation 0.00 in 0.02 in 0.24 in (1917)
Month to date precipitation 0.09 0.21  
Year to date precipitation 2.51 1.19  
Snow  
Snow 0.00 in 0.40 in 3.50 in (1935)
Month to date snowfall 2.3 3.3  
Since 1 July snowfall 59.8 43.3  
Snow Depth 0.00 in    
Sea Level Pressure  
Sea Level Pressure 29.77 in    
Wind  
Wind Speed 23 mph (SW)    
Max Wind Speed 38 mph    
Max Gust Speed 47 mph    
Visibility 10 miles    
Events      
T = Trace of Precipitation, MM = Missing Value Source: NWS Daily Summary

Daily Weather History Graph

Daily Weather History Graph

Search for Another Location

Airport:

Trip Planner

Search our weather history database for the weather conditions in past years. The results will help you decide how hot, cold, wet, or windy it might be!

Date:

Astronomy

Mar. 09, 2014 Rise Set
Actual Time 7:50 AM MDT 7:22 PM MDT
Civil Twilight 7:19 AM MDT 7:53 PM MDT
Nautical Twilight 6:44 AM MDT 8:28 PM MDT
Astronomical Twilight 6:08 AM MDT 9:04 PM MDT
Moon 1:00 PM MDT (3/9) 3:36 AM MDT (3/9)
Length of Visible Light 12h 33m
Length of Day
11h 32m
First Quarter, 61% of the Moon is Illuminated
Mar 9
First Quarter
Mar 16
Full
Mar 23
Last Quarter
Mar 30
New
Apr 7
First Quarter

Hourly Weather History & Observations

Time (MDT) Temp. Windchill Dew Point Humidity Pressure Visibility Wind Dir Wind Speed Gust Speed Precip Events Conditions
12:53 AM 51.1 °F - 19.9 °F 29% 29.81 in 10.0 mi SW 25.3 mph 34.5 mph N/A   Clear
1:53 AM 50.0 °F - 24.1 °F 36% 29.80 in 10.0 mi SW 28.8 mph 38.0 mph N/A   Clear
3:53 AM 51.1 °F - 25.0 °F 36% 29.76 in 10.0 mi SW 33.4 mph 41.4 mph N/A   Clear
4:53 AM 51.1 °F - 27.0 °F 39% 29.77 in 10.0 mi SSW 20.7 mph 32.2 mph N/A   Clear
5:53 AM 50.0 °F - 28.9 °F 44% 29.74 in 10.0 mi SW 24.2 mph 34.5 mph N/A   Clear
6:53 AM 52.0 °F - 28.0 °F 40% 29.71 in 10.0 mi SW 25.3 mph 38.0 mph N/A   Clear
7:53 AM 51.1 °F - 28.9 °F 43% 29.73 in 10.0 mi SW 19.6 mph 27.6 mph N/A   Clear
8:53 AM 52.0 °F - 30.9 °F 45% 29.73 in 10.0 mi SW 28.8 mph 35.7 mph N/A   Clear
9:53 AM 54.0 °F - 33.1 °F 45% 29.73 in 10.0 mi SW 31.1 mph 36.8 mph N/A   Clear
10:53 AM 55.9 °F - 34.0 °F 44% 29.75 in 10.0 mi SW 28.8 mph 33.4 mph N/A   Clear
11:53 AM 59.0 °F - 35.1 °F 41% 29.76 in 10.0 mi SW 25.3 mph 38.0 mph N/A   Clear
12:53 PM 57.0 °F - 36.0 °F 45% 29.77 in 10.0 mi WSW 29.9 mph 42.6 mph N/A   Clear
1:53 PM 59.0 °F - 36.0 °F 42% 29.76 in 10.0 mi WSW 31.1 mph 42.6 mph N/A   Clear
2:53 PM 57.0 °F - 37.0 °F 47% 29.74 in 10.0 mi WSW 27.6 mph 38.0 mph N/A   Clear
3:53 PM 60.1 °F - 37.0 °F 42% 29.73 in 10.0 mi SW 24.2 mph 35.7 mph N/A   Clear
4:53 PM 57.0 °F - 37.0 °F 47% 29.75 in 10.0 mi SW 25.3 mph 32.2 mph N/A   Clear
5:53 PM 57.0 °F - 36.0 °F 45% 29.74 in 10.0 mi SW 21.9 mph 31.1 mph N/A   Clear
6:53 PM 53.1 °F - 36.0 °F 52% 29.77 in 10.0 mi SW 25.3 mph 32.2 mph N/A   Clear
7:53 PM 46.0 °F 40.2 °F 35.1 °F 66% 29.82 in 10.0 mi WSW 12.7 mph - N/A   Clear
8:53 PM 48.0 °F - 35.1 °F 61% 29.81 in 10.0 mi WSW 19.6 mph - N/A   Clear
9:53 PM 48.0 °F - 34.0 °F 58% 29.82 in 10.0 mi WSW 17.3 mph - N/A   Clear
10:53 PM 45.0 °F 38.9 °F 34.0 °F 65% 29.85 in 10.0 mi West 12.7 mph - N/A   Clear
11:53 PM 42.1 °F 36.1 °F 34.0 °F 73% 29.86 in 10.0 mi West 10.4 mph - N/A   Overcast
12:53 AM 45.0 °F 40.1 °F 35.1 °F 68% 29.84 in 10.0 mi WSW 9.2 mph - N/A   Clear